Temperature
17 17 17 17 17 17 17 17 17 16 16 15 15 15 15 15 15 14 14 14 14 14 14 13 13 13 13 13 13 13 12 12 12 12 12 12 12 12
17 17 17 17 17 17 17 17 16 16 16 15 15 15 15 14 14 14 14 14 14 14 13 13 13 13 13 13 12 12 12 12 12 12 12 11 11 11
17 17 17 17 17 17 17 17 16 16 16 16 15 15 14 14 14 14 14 14 13 13 13 13 13 13 12 12 12 12 12 12 12 11 11 11 11 11
17 17 17 17 17 17 17 16 16 16 16 16 15 15 14 14 14 14 13 13 13 13 13 12 12 12 12 12 12 12 11 11 11 11 11 11 11 11
17 17 17 17 17 17 17 16 16 16 16 16 15 15 14 14 14 13 13 13 13 12 12 12 12 12 12 12 12 11 11 11 11 11 11 10 10 10
17 17 17 17 17 17 16 16 16 16 15 15 15 14 14 14 13 13 13 12 12 12 12 12 12 12 12 11 11 11 11 11 11 10 10 10 10 10
17 17 17 17 17 16 16 16 16 16 15 15 15 14 14 14 13 13 13 12 12 12 12 12 12 11 11 11 11 11 11 10 10 10 10 10 10 10
17 17 17 17 17 16 16 16 16 15 15 15 15 14 14 14 14 13 13 12 12 12 12 12 11 11 11 11 11 11 10 10 10 10 10 10 9 9
17 17 17 17 17 16 16 16 15 15 15 15 15 14 14 14 14 13 13 13 12 12 12 11 11 11 11 11 10 10 10 10 10 10 10 9 9 9
17 17 16 16 16 16 16 15 15 15 15 14 14 14 14 14 13 13 13 12 12 11 11 11 11 11 11 11 10 10 10 10 10 10 9 9 9 9
16 16 16 16 16 16 16 15 15 15 14 14 14 14 14 13 13 13 12 12 11 11 11 11 11 11 11 11 10 10 10 10 10 10 9 9 9 9
16 16 16 16 16 15 15 15 15 15 14 14 14 14 13 13 13 13 12 12 11 11 11 11 11 11 10 11 10 10 10 10 10 9 9 9 9 8
16 16 16 15 15 15 15 15 14 14 14 14 13 13 13 13 12 12 12 12 12 11 11 11 11 10 10 10 10 10 10 10 9 9 9 9 9 8
16 16 15 15 15 15 14 14 14 14 13 13 13 13 13 13 12 12 12 12 11 11 11 11 11 10 10 10 10 10 10 9 9 9 9 9 8 8
15 15 15 14 14 14 14 14 13 13 13 13 13 13 13 12 12 12 11 11 11 11 11 10 10 10 10 10 10 10 9 9 9 9 9 9 8 8
15 15 14 14 14 13 13 13 13 13 13 13 12 12 12 12 12 12 11 11 11 11 10 10 10 10 10 10 9 9 9 9 9 9 9 8 8 8
15 14 14 14 13 13 13 13 13 13 12 12 12 12 12 12 11 11 11 11 10 10 10 10 10 10 9 9 9 9 9 9 9 8 8 8 8 8
14 14 14 14 13 13 13 13 13 12 12 12 12 12 12 11 11 11 11 11 10 10 10 10 10 9 9 9 9 9 9 9 9 8 8 8 8 8
14 13 13 13 13 13 13 13 13 12 12 12 12 12 11 11 11 11 11 10 10 10 10 10 9 9 9 9 9 9 9 8 8 8 8 8 8 8
13 13 13 13 13 13 13 12 12 12 12 12 11 11 11 11 11 11 10 10 10 10 10 10 9 9 9 9 9 9 9 8 8 8 8 8 7 7
13 13 13 12 12 12 12 12 12 12 11 11 11 11 11 11 11 10 10 10 10 10 10 10 10 9 9 9 9 9 9 8 8 8 8 7 7 7
13 12 12 12 12 12 12 12 11 11 11 11 11 11 11 11 10 10 10 10 10 10 10 10 9 9 9 9 9 9 8 8 8 8 7 7 7 7
12 12 12 12 12 12 11 11 11 11 11 11 10 10 10 10 10 10 10 10 10 10 9 9 9 9 9 9 8 8 8 8 8 7 7 7 7 7
Wind_Speed
2 2 2 2 2 3 4 5 5 3 3 3 1 1 3 5 6 6 6 7 6 6 5 5 5 5 5 5 4 3 3 3 3 3 3 4 4 3
2 2 2 2 2 2 3 3 4 4 3 3 2 2 3 4 6 6 6 7 6 6 5 5 5 5 5 5 5 4 4 5 5 5 4 5 5 4
2 3 3 2 2 2 2 3 3 4 3 2 1 2 3 4 4 5 5 5 5 5 5 5 5 5 5 5 4 4 4 4 4 5 5 5 5 5
3 3 3 2 2 2 2 3 3 3 4 4 2 2 2 4 4 3 4 4 4 4 5 5 5 5 5 4 4 4 4 4 5 5 6 6 6 5
4 4 4 3 3 2 3 3 2 3 3 5 3 2 2 3 3 2 3 2 3 4 4 4 5 5 4 4 3 3 3 4 5 5 6 6 6 6
4 4 5 4 4 4 3 4 3 4 4 5 4 3 2 2 3 3 2 1 1 3 3 3 3 4 4 4 3 3 4 4 4 5 5 5 5 5
4 4 5 6 7 5 5 5 5 4 4 4 4 3 3 3 4 3 3 2 1 2 2 2 2 2 3 4 4 4 5 5 6 5 5 5 5 5
4 4 4 4 5 5 6 7 8 7 6 5 4 5 5 5 4 4 4 3 2 3 3 2 2 2 4 5 5 5 6 6 6 7 6 6 5 5
5 5 4 4 4 3 4 5 6 8 10 7 7 6 6 7 7 6 5 5 4 4 4 3 2 3 5 6 7 7 7 7 7 7 8 7 7 6
5 6 5 4 4 5 5 3 3 3 5 6 6 6 6 7 8 8 7 4 1 1 4 3 3 3 4 6 9 10 9 9 9 8 9 9 9 8
4 4 5 5 7 8 6 5 3 2 3 5 6 7 8 9 9 5 5 4 3 3 3 3 3 2 2 3 8 10 11 11 11 10 10 10 10 8
3 3 6 7 8 9 7 7 6 5 3 2 2 3 5 7 11 9 8 6 3 3 4 4 3 3 1 2 4 7 9 10 12 12 12 11 11 7
3 3 4 7 9 9 8 7 8 6 4 4 3 2 2 3 5 7 7 6 6 4 5 5 4 3 3 2 2 3 6 6 7 9 11 11 12 10
5 4 4 6 8 9 7 7 7 5 3 3 3 3 4 4 4 5 7 7 6 6 7 7 4 5 4 2 2 2 3 5 5 5 7 8 10 11
5 6 5 5 5 5 7 8 6 4 4 4 5 5 5 5 4 3 4 4 3 4 6 7 5 5 5 5 3 3 2 3 5 4 4 5 5 5
3 3 4 4 4 4 4 4 5 5 5 5 5 4 3 3 3 3 3 3 2 3 4 6 7 6 4 4 4 3 3 3 3 4 4 4 5 7
3 2 2 2 3 3 3 4 4 4 5 5 4 4 4 4 4 3 3 3 4 4 4 2 4 4 5 4 3 4 4 3 3 3 4 3 4 5
5 3 4 5 5 5 5 4 4 5 5 5 5 5 5 5 4 3 3 4 5 5 5 3 3 1 0 2 5 5 4 4 3 3 4 4 4 4
4 4 5 5 5 5 5 5 5 5 5 5 5 5 4 4 4 4 4 4 5 5 5 4 4 4 4 5 4 7 6 4 3 3 4 4 4 5
4 5 5 5 5 4 5 5 4 4 4 4 4 4 5 5 4 5 5 6 6 5 5 4 5 6 8 7 4 3 8 6 4 4 4 3 3 3
5 5 5 5 4 4 4 4 4 4 4 4 4 5 5 5 5 5 5 7 6 5 6 7 7 8 4 2 1 2 3 8 8 5 5 3 2 1
5 5 5 5 4 4 4 4 4 4 4 4 5 5 5 5 5 6 6 5 6 6 7 5 3 3 4 5 6 5 4 3 4 7 8 8 5 5
5 5 5 5 5 4 4 5 5 5 5 5 5 5 5 5 5 5 6 6 5 5 5 4 2 3 5 6 6 5 4 4 2 2 3 6 9 9
Wind_Direction
206 206 209 227 196 183 173 166 165 192 237 223 209 178 148 140 141 134 134 139 132 128 122 116 108 97 88 80 76 75 80 99 110 120 134 142 143 148
207 199 219 227 212 191 186 184 176 175 199 212 206 181 161 144 143 138 138 137 135 134 129 123 115 108 100 91 85 85 88 95 106 112 117 125 129 130
224 207 225 216 206 204 184 177 177 161 174 214 190 159 148 145 138 142 142 137 134 136 136 129 123 120 116 111 100 94 93 96 110 116 116 118 123 126
225 216 226 212 207 198 180 178 178 165 162 175 182 159 161 161 151 150 150 144 138 132 137 136 130 128 128 124 119 113 106 98 104 115 115 116 115 119
209 205 215 198 210 203 183 179 173 155 145 155 172 164 152 157 142 135 134 132 140 137 139 145 146 148 146 144 141 140 132 121 113 114 113 114 114 113
210 204 206 199 203 199 192 180 162 145 140 145 153 157 156 156 147 152 153 185 178 160 160 165 166 170 176 173 168 163 159 155 147 138 131 127 124 123
219 216 213 204 199 196 190 177 161 154 150 152 160 161 172 171 184 180 178 183 227 191 167 194 195 207 218 211 201 192 185 179 173 167 162 155 149 145
219 229 223 210 197 187 183 181 175 171 173 171 179 187 197 195 183 179 168 162 220 210 168 216 196 219 233 225 215 203 198 192 188 188 186 183 180 178
216 217 220 211 190 178 170 167 184 188 185 180 187 200 196 196 182 186 188 185 202 191 163 211 212 225 236 226 219 217 215 212 209 207 206 204 204 201
221 215 209 211 198 174 163 168 188 200 197 189 194 203 200 194 192 192 188 180 174 176 162 190 211 222 232 233 229 225 224 224 221 219 216 212 211 213
229 209 198 202 201 179 169 178 191 217 203 190 194 200 200 197 184 163 159 156 194 226 190 177 198 205 230 237 238 230 228 227 223 223 223 221 220 219
244 222 205 202 199 185 183 184 197 211 189 195 212 223 208 201 191 184 180 178 180 214 205 179 184 164 235 250 230 229 228 231 227 226 227 227 223 219
223 233 229 206 200 197 190 192 201 195 190 195 213 226 213 204 200 194 190 183 186 213 197 172 182 180 189 232 254 226 218 226 230 233 234 232 226 215
222 225 223 208 199 196 198 203 199 188 181 194 212 222 216 215 209 197 197 199 199 203 191 173 180 183 178 191 239 243 223 220 215 225 233 235 231 227
222 215 210 203 198 201 209 210 203 199 196 207 221 229 225 215 195 184 193 201 213 220 207 197 185 180 178 193 203 202 210 228 215 216 221 221 224 220
217 211 201 203 210 216 217 221 218 211 209 216 224 229 217 201 199 190 187 186 198 254 245 220 207 188 195 203 195 207 197 203 211 210 211 224 227 220
174 158 167 186 210 225 228 231 226 217 218 219 216 217 214 213 218 202 191 188 202 224 238 238 221 206 198 186 199 216 211 212 207 196 198 221 238 234
160 189 207 208 215 220 225 230 223 223 224 218 216 215 214 215 218 208 195 198 209 219 223 215 180 159 311 267 217 212 214 215 210 194 191 203 236 241
181 212 219 220 223 222 223 226 230 229 225 220 218 216 213 211 208 211 210 209 217 219 219 209 192 188 210 244 256 215 202 206 189 192 204 203 218 232
212 221 226 226 224 224 226 228 227 222 222 218 217 215 207 206 208 211 209 209 215 219 224 218 207 204 210 220 222 233 207 193 189 199 206 208 231 252
222 228 229 228 228 227 228 225 219 218 216 217 216 214 213 210 215 215 212 212 214 220 224 230 228 215 198 153 189 249 238 212 205 198 188 183 204 227
219 224 230 231 229 226 220 218 223 228 225 226 225 222 219 215 216 216 213 214 218 221 227 231 211 177 177 194 214 225 233 235 227 222 214 202 184 199
216 220 228 232 230 222 218 219 221 231 232 227 227 225 218 219 223 221 216 215 217 219 217 213 196 187 201 204 213 219 221 221 213 212 252 243 230 234
Height
1538 1538 1538 1538 1538 1538 1538 1539 1539 1538 1538 1538 1538 1538 1538 1538 1538 1538 1538 1537 1537 1536 1535 1534 1533 1533 1532 1531 1531 1530 1530 1529 1529 1528 1529 1529 1529 1529
1536 1536 1536 1536 1536 1536 1536 1536 1536 1536 1535 1535 1536 1536 1537 1537 1537 1537 1537 1536 1536 1535 1535 1534 1533 1532 1532 1531 1530 1529 1529 1528 1527 1527 1527 1527 1527 1528
1533 1533 1533 1534 1534 1534 1534 1534 1534 1534 1533 1534 1534 1535 1535 1535 1536 1536 1535 1535 1535 1535 1534 1534 1533 1532 1531 1530 1530 1529 1528 1527 1527 1526 1526 1526 1526 1526
1531 1531 1531 1531 1531 1531 1531 1531 1531 1531 1532 1531 1532 1533 1533 1534 1534 1535 1535 1534 1534 1534 1533 1533 1532 1532 1531 1530 1529 1529 1528 1527 1526 1525 1525 1525 1525 1525
1529 1529 1529 1529 1528 1529 1529 1529 1529 1529 1529 1530 1530 1531 1531 1532 1532 1533 1533 1533 1533 1533 1533 1532 1532 1531 1530 1530 1529 1528 1527 1527 1526 1525 1525 1524 1524 1524
1526 1526 1526 1526 1526 1526 1526 1526 1526 1526 1527 1528 1528 1529 1529 1530 1530 1531 1531 1531 1531 1531 1531 1531 1531 1530 1530 1529 1528 1528 1527 1526 1526 1525 1525 1524 1524 1524
1523 1523 1523 1523 1523 1523 1523 1524 1524 1524 1525 1525 1526 1526 1527 1527 1528 1528 1529 1529 1529 1529 1530 1529 1529 1529 1528 1528 1527 1527 1526 1526 1525 1525 1525 1524 1524 1524
1519 1519 1519 1519 1520 1520 1520 1521 1522 1522 1522 1522 1523 1523 1523 1524 1525 1525 1526 1526 1526 1527 1527 1527 1527 1527 1527 1526 1526 1526 1525 1525 1525 1524 1524 1524 1523 1523
1516 1516 1516 1516 1517 1516 1517 1517 1518 1519 1520 1520 1520 1520 1521 1521 1522 1522 1523 1523 1523 1524 1525 1525 1525 1525 1525 1525 1525 1524 1524 1524 1524 1523 1523 1523 1522 1522
1512 1512 1512 1513 1514 1514 1513 1514 1514 1515 1516 1516 1517 1517 1518 1519 1519 1520 1520 1521 1521 1521 1522 1522 1522 1522 1523 1523 1523 1523 1523 1522 1522 1522 1522 1521 1521 1521
1509 1509 1509 1509 1510 1510 1510 1510 1510 1511 1512 1512 1513 1514 1515 1515 1516 1516 1516 1517 1517 1518 1519 1519 1519 1519 1520 1520 1520 1520 1520 1520 1520 1520 1520 1520 1519 1519
1505 1505 1505 1505 1506 1507 1506 1506 1506 1507 1508 1508 1510 1510 1511 1512 1512 1512 1513 1513 1513 1514 1515 1516 1516 1516 1517 1517 1517 1517 1517 1518 1518 1518 1517 1517 1517 1517
1501 1501 1501 1501 1502 1502 1502 1503 1503 1504 1504 1505 1506 1506 1507 1508 1508 1509 1509 1510 1510 1511 1512 1512 1512 1513 1514 1514 1514 1514 1514 1515 1515 1515 1515 1515 1515 1514
1498 1497 1498 1498 1498 1499 1499 1499 1501 1501 1501 1501 1502 1502 1503 1503 1504 1505 1506 1507 1507 1508 1509 1509 1509 1510 1510 1510 1511 1511 1511 1511 1511 1511 1512 1512 1512 1511
1494 1494 1494 1494 1494 1495 1496 1497 1497 1498 1497 1498 1498 1499 1500 1500 1501 1501 1502 1503 1503 1504 1505 1505 1506 1506 1507 1506 1507 1507 1507 1507 1508 1508 1508 1508 1508 1508
1490 1490 1490 1490 1491 1491 1492 1493 1494 1494 1494 1494 1494 1495 1496 1497 1497 1497 1498 1498 1499 1499 1500 1501 1502 1503 1503 1503 1503 1503 1503 1503 1503 1504 1504 1504 1504 1504
1485 1485 1486 1486 1486 1487 1487 1488 1489 1490 1490 1490 1491 1491 1492 1492 1493 1493 1494 1494 1494 1495 1496 1497 1498 1498 1499 1499 1498 1498 1499 1499 1500 1500 1501 1500 1500 1500
1482 1481 1481 1481 1482 1482 1483 1484 1484 1485 1486 1486 1487 1487 1487 1487 1488 1489 1490 1490 1490 1491 1492 1493 1494 1494 1494 1494 1495 1494 1495 1495 1495 1496 1496 1496 1496 1496
1477 1476 1477 1477 1477 1478 1479 1479 1480 1481 1482 1482 1482 1482 1483 1483 1484 1484 1485 1485 1486 1486 1487 1488 1489 1489 1489 1489 1489 1491 1491 1491 1491 1491 1491 1492 1491 1492
1472 1472 1472 1473 1473 1474 1474 1475 1475 1476 1477 1477 1477 1478 1478 1479 1479 1479 1480 1480 1481 1482 1482 1483 1484 1484 1484 1485 1485 1486 1487 1487 1487 1487 1487 1487 1487 1488
1467 1467 1468 1468 1469 1470 1470 1471 1471 1471 1472 1472 1472 1473 1474 1474 1474 1474 1475 1475 1476 1477 1477 1478 1479 1481 1481 1482 1482 1481 1482 1483 1483 1483 1483 1483 1483 1483
1463 1463 1463 1464 1464 1465 1465 1466 1466 1467 1467 1467 1468 1468 1468 1469 1469 1470 1470 1470 1471 1471 1472 1473 1475 1476 1476 1476 1476 1477 1478 1478 1479 1479 1479 1479 1479 1478
1458 1458 1458 1459 1459 1460 1460 1460 1461 1461 1461 1462 1462 1462 1463 1463 1464 1465 1465 1465 1466 1467 1468 1469 1470 1470 1471 1471 1472 1472 1473 1474 1474 1474 1475 1475 1476 1476